• In Switzerland
  • List of Countries
  • For 7 days
  • Water Temperature
  • Satellite Maps
  • Weather Map
  • Weather Widgets
  • user-avatar
    Login

    Hourly Weather Hruschevo

    Today, 24 September, Monday

    Time Temperature Precipitation Wind Pressure Humidity
    00:00 +9°C° 0 mm 3 mps 746 mmHg 88%
    01:00 +8°C° 0 mm 3 mps 746 mmHg 89%
    02:00 +8°C° 0 mm 3 mps 746 mmHg 90%
    03:00 +8°C° 0 mm 3 mps 746 mmHg 91%
    04:00 +7°C° 0 mm 3 mps 747 mmHg 92%
    05:00 +7°C° 0 mm 3 mps 747 mmHg 93%
    06:00 +7°C° 0 mm 3 mps 747 mmHg 93%
    07:00 +8°C° 0 mm 3 mps 747 mmHg 88%
    08:00 +9°C° 0 mm 3 mps 747 mmHg 83%
    09:00 +11°C° 0 mm 3 mps 747 mmHg 77%
    10:00 +12°C° 0 mm 4 mps 747 mmHg 71%
    11:00 +13°C° 0 mm 4 mps 747 mmHg 64%
    12:00 +15°C° 0 mm 5 mps 746 mmHg 58%
    13:00 +15°C° 0 mm 5 mps 746 mmHg 57%
    14:00 +15°C° 0 mm 5 mps 746 mmHg 56%
    15:00 +15°C° 0 mm 5 mps 745 mmHg 55%
    16:00 +13°C° 0.5 mm 6 mps 745 mmHg 62%
    17:00 +11°C° 0.5 mm 6 mps 744 mmHg 69%
    18:00 +10°C° 0.5 mm 6 mps 743 mmHg 77%
    19:00 +10°C° 1.6 mm 7 mps 743 mmHg 79%
    20:00 +10°C° 1.6 mm 7 mps 742 mmHg 81%
    21:00 +10°C° 1.6 mm 8 mps 741 mmHg 83%
    22:00 +10°C° 0.9 mm 8 mps 740 mmHg 83%
    23:00 +10°C° 0.9 mm 8 mps 740 mmHg 84%

    Tomorrow, 25 September, Tuesday

    Time Temperature Precipitation Wind Pressure Humidity
    00:00 +11°C° 0.9 mm 9 mps 739 mmHg 84%
    01:00 +10°C° 0.5 mm 8 mps 739 mmHg 85%
    02:00 +10°C° 0.5 mm 7 mps 738 mmHg 85%
    03:00 +10°C° 0.5 mm 6 mps 738 mmHg 86%
    04:00 +9°C° 0.1 mm 6 mps 738 mmHg 85%
    05:00 +8°C° 0.1 mm 6 mps 738 mmHg 85%
    06:00 +8°C° 0.1 mm 5 mps 738 mmHg 84%
    07:00 +8°C° 0 mm 6 mps 738 mmHg 82%
    08:00 +8°C° 0 mm 6 mps 738 mmHg 79%
    09:00 +9°C° 0 mm 7 mps 739 mmHg 76%
    10:00 +9°C° 0 mm 7 mps 739 mmHg 75%
    11:00 +9°C° 0 mm 7 mps 740 mmHg 74%
    12:00 +9°C° 0 mm 7 mps 740 mmHg 73%
    13:00 +9°C° 0.1 mm 7 mps 740 mmHg 72%
    14:00 +10°C° 0.1 mm 7 mps 741 mmHg 71%
    15:00 +10°C° 0.1 mm 7 mps 741 mmHg 70%
    16:00 +9°C° 0.1 mm 7 mps 742 mmHg 72%
    17:00 +8°C° 0.1 mm 7 mps 742 mmHg 74%
    18:00 +6°C° 0.1 mm 7 mps 743 mmHg 76%
    19:00 +6°C° 0.2 mm 7 mps 743 mmHg 77%
    20:00 +6°C° 0.2 mm 7 mps 744 mmHg 79%
    21:00 +6°C° 0.2 mm 7 mps 744 mmHg 80%
    22:00 +5°C° 0.3 mm 7 mps 745 mmHg 80%
    23:00 +5°C° 0.3 mm 7 mps 746 mmHg 81%

    Day after tomorrow, 26 September, Wednesday

    Time Temperature Precipitation Wind Pressure Humidity
    00:00 +5°C° 0.3 mm 7 mps 746 mmHg 81%
    01:00 +5°C° 0.1 mm 7 mps 747 mmHg 82%
    02:00 +5°C° 0.1 mm 7 mps 748 mmHg 82%
    03:00 +4°C° 0.1 mm 6 mps 748 mmHg 82%
    04:00 +4°C° 0.1 mm 6 mps 749 mmHg 82%
    05:00 +4°C° 0.1 mm 6 mps 750 mmHg 82%
    06:00 +4°C° 0.1 mm 6 mps 751 mmHg 82%
    07:00 +4°C° 0 mm 6 mps 751 mmHg 79%
    08:00 +4°C° 0 mm 6 mps 752 mmHg 76%
    09:00 +4°C° 0 mm 6 mps 753 mmHg 73%
    10:00 +5°C° 0 mm 6 mps 754 mmHg 68%
    11:00 +7°C° 0 mm 6 mps 754 mmHg 63%
    12:00 +7°C° 0 mm 5 mps 755 mmHg 58%
    13:00 +8°C° 0 mm 5 mps 755 mmHg 54%
    14:00 +8°C° 0 mm 5 mps 755 mmHg 50%
    15:00 +9°C° 0 mm 5 mps 755 mmHg 47%
    16:00 +8°C° 0 mm 4 mps 755 mmHg 50%
    17:00 +7°C° 0 mm 3 mps 755 mmHg 53%
    18:00 +5°C° 0 mm 3 mps 755 mmHg 57%
    19:00 +5°C° 0 mm 3 mps 755 mmHg 60%
    20:00 +4°C° 0 mm 3 mps 755 mmHg 62%
    21:00 +4°C° 0 mm 3 mps 755 mmHg 65%
    22:00 +3°C° 0 mm 4 mps 755 mmHg 65%
    23:00 +3°C° 0 mm 4 mps 754 mmHg 65%

    27 September, Thursday

    Time Temperature Precipitation Wind Pressure Humidity
    00:00 +2°C° 0 mm 5 mps 754 mmHg 65%
    01:00 +3°C° 0 mm 5 mps 753 mmHg 65%
    02:00 +3°C° 0 mm 6 mps 752 mmHg 65%
    03:00 +3°C° 0 mm 6 mps 752 mmHg 65%
    04:00 +4°C° 0.2 mm 7 mps 751 mmHg 66%
    05:00 +4°C° 0.2 mm 7 mps 750 mmHg 68%
    06:00 +4°C° 0.2 mm 8 mps 749 mmHg 69%
    07:00 +4°C° 1 mm 8 mps 748 mmHg 72%
    08:00 +3°C° 1 mm 9 mps 748 mmHg 75%
    09:00 +3°C° 1 mm 9 mps 747 mmHg 78%
    10:00 +3°C° 1.1 mm 9 mps 747 mmHg 79%
    11:00 +3°C° 1.1 mm 9 mps 746 mmHg 81%
    12:00 +5°C° 1.1 mm 9 mps 746 mmHg 82%
    13:00 +6°C° 0.2 mm 8 mps 746 mmHg 81%
    14:00 +6°C° 0.2 mm 8 mps 746 mmHg 80%
    15:00 +8°C° 0.2 mm 7 mps 746 mmHg 79%
    16:00 +8°C° 0 mm 7 mps 746 mmHg 80%
    17:00 +8°C° 0 mm 6 mps 746 mmHg 81%
    18:00 +8°C° 0 mm 5 mps 746 mmHg 82%
    19:00 +7°C° 0 mm 5 mps 746 mmHg 85%
    20:00 +7°C° 0 mm 5 mps 746 mmHg 87%
    21:00 +7°C° 0 mm 5 mps 747 mmHg 90%
    22:00 +7°C° 0 mm 5 mps 746 mmHg 90%
    23:00 +7°C° 0 mm 5 mps 746 mmHg 91%

    28 September, Friday

    Time Temperature Precipitation Wind Pressure Humidity
    00:00 +7°C° 0 mm 5 mps 746 mmHg 91%
    01:00 +7°C° 0 mm 5 mps 746 mmHg 91%
    02:00 +7°C° 0 mm 5 mps 745 mmHg 91%
    03:00 +8°C° 0 mm 5 mps 745 mmHg 91%
    04:00 +8°C° 0.2 mm 6 mps 744 mmHg 91%
    05:00 +9°C° 0.2 mm 6 mps 743 mmHg 90%
    06:00 +9°C° 0.2 mm 7 mps 743 mmHg 90%
    07:00 +10°C° 0.2 mm 8 mps 742 mmHg 88%
    08:00 +11°C° 0.2 mm 8 mps 742 mmHg 86%
    09:00 +12°C° 0.2 mm 9 mps 741 mmHg 84%
    10:00 +12°C° 0.1 mm 9 mps 741 mmHg 82%
    11:00 +12°C° 0.1 mm 10 mps 741 mmHg 81%
    12:00 +13°C° 0.1 mm 10 mps 740 mmHg 79%
    13:00 +12°C° 0.4 mm 10 mps 741 mmHg 80%
    14:00 +12°C° 0.4 mm 10 mps 741 mmHg 80%
    15:00 +12°C° 0.4 mm 9 mps 742 mmHg 81%
    16:00 +11°C° 0.2 mm 8 mps 743 mmHg 79%
    17:00 +10°C° 0.2 mm 6 mps 744 mmHg 78%
    18:00 +9°C° 0.2 mm 5 mps 744 mmHg 76%
    19:00 +8°C° 0 mm 4 mps 745 mmHg 79%
    20:00 +7°C° 0 mm 4 mps 746 mmHg 81%
    21:00 +7°C° 0 mm 3 mps 747 mmHg 84%
    22:00 +7°C° 0 mm 3 mps 747 mmHg 85%
    23:00 +7°C° 0 mm 3 mps 748 mmHg 86%

    29 September, Saturday

    Time Temperature Precipitation Wind Pressure Humidity
    00:00 +7°C° 0 mm 3 mps 748 mmHg 86%
    01:00 +5°C° 0 mm 3 mps 749 mmHg 88%
    02:00 +5°C° 0 mm 3 mps 749 mmHg 89%
    03:00 +4°C° 0 mm 3 mps 750 mmHg 90%
    04:00 +4°C° 0 mm 3 mps 750 mmHg 91%
    05:00 +5°C° 0 mm 2 mps 751 mmHg 92%
    06:00 +4°C° 0 mm 2 mps 751 mmHg 93%
    07:00 +5°C° 0 mm 2 mps 752 mmHg 88%
    08:00 +6°C° 0 mm 2 mps 752 mmHg 83%
    09:00 +7°C° 0 mm 2 mps 752 mmHg 77%
    10:00 +8°C° 0 mm 3 mps 753 mmHg 70%
    11:00 +9°C° 0 mm 3 mps 753 mmHg 62%
    12:00 +10°C° 0 mm 3 mps 753 mmHg 55%
    13:00 +11°C° 0 mm 3 mps 753 mmHg 52%
    14:00 +11°C° 0 mm 3 mps 753 mmHg 49%
    15:00 +11°C° 0 mm 3 mps 753 mmHg 46%
    16:00 +10°C° 0 mm 3 mps 753 mmHg 50%
    17:00 +9°C° 0 mm 2 mps 754 mmHg 53%
    18:00 +8°C° 0 mm 2 mps 754 mmHg 57%
    19:00 +8°C° 0 mm 2 mps 755 mmHg 58%
    20:00 +7°C° 0 mm 2 mps 755 mmHg 60%
    21:00 +7°C° 0 mm 2 mps 756 mmHg 61%
    22:00 +6°C° 0 mm 2 mps 756 mmHg 64%
    23:00 +5°C° 0 mm 2 mps 756 mmHg 67%
    Show more

    3.3.7123123